Hourly Weather Roundup
Issued by NWS Central Illinois

Home | Current Version | Previous Version | Text Only | Print | Product List | Glossary On
Versions: 1 2 3 4 5 6 7 8 9 10 11 12 13 14 15 16 17 18 19 20 21 22 23 24 25 26 27 28 29 30 31 32 33 34 35 36 37 38 39 40 41 42 43 44 45 46 47 48 49 50
000
NZUS43 KILX 290910
HWRILX

AREA WEATHER ROUNDUP
NATIONAL WEATHER SERVICE, LINCOLN IL
400 AM CDT FRI APR 29 2016


CITY           SKY/WX    TMP DP  RH WIND       PRES   REMARKS
BLOOMINGTON    CLEAR     49  48  96 W7        30.04R
CHAMPAIGN      CLEAR     47  45  93 W3        30.02R
DANVILLE         N/A     46  46  99 W5        29.99R FOG
DECATUR        CLEAR     51  47  86 W3        30.04R
EFFINGHAM      CLOUDY    50  50 100 CALM      30.05R
FLORA          CLOUDY    54  50  88 CALM      30.04R
GALESBURG      CLOUDY    50  49  96 NW7       30.05R FOG
JACKSONVILLE   PTCLDY    50  46  87 W5        30.05R
LACON          CLOUDY    47  45  92 CALM      30.03R FOG
LAWRENCEVILLE  CLOUDY    53  50  89 CALM      30.03R
LITCHFIELD     CLOUDY    50  47  88 W3        30.05R
$$


CITY           SKY/WX    TMP DP  RH WIND       PRES   REMARKS
LINCOLN        CLEAR     53  50  89 CALM      30.04R
MACOMB         MOCLDY    47  46  96 W6        30.07R
MATTOON        NOT AVBL
MT CARMEL AP   NOT AVBL
OLNEY-NOBLE AP PTCLDY    52  52 100 CALM      30.04R
PARIS          CLOUDY    47  46  98 CALM      30.03R
PEORIA         MOCLDY    51  47  86 W3        30.04R
PONTIAC        CLOUDY    49  48  99 CALM      30.03R FOG
RANTOUL        CLEAR     49  49  99 W3        30.02R FOG
ROBINSON       CLOUDY    48  48 100 CALM      30.04R
SPRINGFIELD    PTCLDY    52  47  83 NW7       30.03R
TAYLORVILLE    CLOUDY    48  48 100 CALM      30.05R
$$

...REGIONAL REPORTS...


CITY           SKY/WX    TMP DP  RH WIND       PRES   REMARKS
CHICAGO O`HARE CLOUDY    43  41  93 N7        30.02R FOG
KANKAKEE       CLOUDY    46  43  88 NW5       30.02S FOG
MOLINE         CLOUDY    46  43  89 VRB5      30.06R FOG
MOUNT STERLING CLOUDY    48  46  90 NW9       30.04R
MOUNT VERNON   CLEAR     48  45  87 CALM      30.05R
PITTSFIELD     CLOUDY    51  47  84 NW6       30.07R
QUINCY         CLOUDY    49  45  86 NW6       30.06R
ROCKFORD       CLOUDY    42  39  89 N7        30.07R
$$


CITY           SKY/WX    TMP DP  RH WIND       PRES   REMARKS
BURLINGTON     CLOUDY    50  49  96 NW5       30.05R
CEDAR RAPIDS   CLOUDY    43  43 100 N7        30.07R
DES MOINES     CLOUDY    48  43  82 NW6       30.12R
KIRKSVILLE     CLOUDY    47  43  86 W6        30.10R
OTTUMWA        CLOUDY    47  46  97 N7        30.09R
ST LOUIS       CLOUDY    56  49  77 W5        30.07R
$$


CITY           SKY/WX    TMP DP  RH WIND       PRES   REMARKS
TERRE HAUTE    CLEAR     49  46  90 CALM      30.02R
EVANSVILLE     MOCLDY    56  50  80 CALM      30.04R
INDIANAPOLIS   PTCLDY    50  46  86 W9        29.99R
LAFAYETTE      PTCLDY    48  47  96 W3        30.00R FOG
MADISON        CLOUDY    39  38  96 NW3       30.07R
MILWAUKEE      CLOUDY    40  38  93 NE7       30.04S
$$






USA.gov is the U.S. government's official web portal to all federal, state and local government web resources and services.